TimeEST,TemperatureF,Dew PointF,Humidity,Sea Level PressureIn,VisibilityMPH,Wind Direction,Wind SpeedMPH,Gust SpeedMPH,PrecipitationIn,Events,Conditions,WindDirDegrees,DateUTC
12:15 AM,37.4,26.6,65,30.07,10.0,NNW,3.5,-,N/A,,Clear,330,2013-03-03 05:15:00
12:35 AM,35.6,24.8,65,30.07,10.0,WNW,3.5,-,N/A,,Clear,300,2013-03-03 05:35:00
12:53 AM,32.0,26.1,79,30.06,-9999.0,West,3.5,-,N/A,,Unknown,280,2013-03-03 05:53:00
12:55 AM,32.0,24.8,75,30.07,10.0,WNW,3.5,-,N/A,,Clear,300,2013-03-03 05:55:00
1:15 AM,33.8,26.6,75,30.07,10.0,Calm,Calm,-,N/A,,Clear,0,2013-03-03 06:15:00
1:35 AM,33.8,26.6,75,30.08,10.0,NW,4.6,-,N/A,,Clear,310,2013-03-03 06:35:00
1:53 AM,32.0,26.1,79,30.07,-9999.0,West,3.5,-,N/A,,Unknown,280,2013-03-03 06:53:00
1:55 AM,33.8,26.6,75,30.08,10.0,WNW,3.5,-,N/A,,Clear,300,2013-03-03 06:55:00
2:15 AM,33.8,28.4,81,30.08,10.0,WNW,4.6,-,N/A,,Clear,300,2013-03-03 07:15:00
2:35 AM,32.0,26.6,80,30.08,10.0,WNW,4.6,-,N/A,,Clear,300,2013-03-03 07:35:00
2:53 AM,30.9,26.1,82,30.07,-9999.0,WNW,4.6,-,N/A,,Unknown,300,2013-03-03 07:53:00
2:55 AM,33.8,28.4,81,30.08,10.0,NW,4.6,-,N/A,,Clear,310,2013-03-03 07:55:00
3:15 AM,32.0,26.6,80,30.08,10.0,WNW,4.6,-,N/A,,Clear,300,2013-03-03 08:15:00
3:35 AM,32.0,26.6,80,30.07,10.0,WNW,3.5,-,N/A,,Scattered Clouds,290,2013-03-03 08:35:00
3:53 AM,32.0,27.0,82,30.06,-9999.0,Calm,Calm,-,N/A,,Unknown,0,2013-03-03 08:53:00
3:55 AM,32.0,28.4,87,30.07,10.0,WNW,3.5,-,N/A,,Mostly Cloudy,290,2013-03-03 08:55:00
4:15 AM,33.8,30.2,87,30.07,10.0,WNW,5.8,-,N/A,,Overcast,300,2013-03-03 09:15:00
4:35 AM,33.8,28.4,81,30.07,10.0,WNW,3.5,-,N/A,,Overcast,300,2013-03-03 09:35:00
4:53 AM,34.0,28.0,79,30.06,-9999.0,WNW,3.5,-,N/A,,Unknown,290,2013-03-03 09:53:00
4:55 AM,33.8,28.4,81,30.07,10.0,WNW,3.5,-,N/A,,Overcast,300,2013-03-03 09:55:00
5:35 AM,35.6,30.2,81,30.08,10.0,WNW,3.5,-,N/A,,Overcast,290,2013-03-03 10:35:00
5:53 AM,36.0,30.0,79,30.08,-9999.0,West,5.8,-,N/A,,Unknown,270,2013-03-03 10:53:00
5:55 AM,35.6,30.2,81,30.09,10.0,West,4.6,-,N/A,,Overcast,280,2013-03-03 10:55:00
6:15 AM,37.4,30.2,75,30.09,10.0,West,5.8,-,N/A,,Overcast,280,2013-03-03 11:15:00
6:35 AM,37.4,30.2,75,30.09,10.0,West,5.8,-,N/A,,Overcast,280,2013-03-03 11:35:00
6:53 AM,37.0,30.9,79,30.08,-9999.0,West,3.5,-,N/A,,Unknown,280,2013-03-03 11:53:00
6:55 AM,37.4,30.2,75,30.09,10.0,West,3.5,-,N/A,,Overcast,280,2013-03-03 11:55:00
7:15 AM,37.4,30.2,75,30.09,10.0,WNW,4.6,-,N/A,,Overcast,290,2013-03-03 12:15:00
7:35 AM,37.4,30.2,75,30.10,10.0,WNW,5.8,-,N/A,,Overcast,300,2013-03-03 12:35:00
7:53 AM,39.0,30.0,70,30.10,-9999.0,West,9.2,-,N/A,,Unknown,280,2013-03-03 12:53:00
7:55 AM,39.2,28.4,65,30.11,10.0,WNW,6.9,-,N/A,,Overcast,300,2013-03-03 12:55:00
8:15 AM,39.2,26.6,61,30.11,10.0,WNW,6.9,-,N/A,,Overcast,290,2013-03-03 13:15:00
8:35 AM,41.0,26.6,57,30.12,10.0,WNW,11.5,-,N/A,,Overcast,290,2013-03-03 13:35:00
8:53 AM,39.9,28.0,63,30.12,-9999.0,WNW,11.5,-,N/A,,Unknown,300,2013-03-03 13:53:00
8:55 AM,41.0,26.6,57,30.13,10.0,WNW,10.4,-,N/A,,Overcast,290,2013-03-03 13:55:00
9:15 AM,41.0,24.8,53,30.13,10.0,NNW,11.5,17.3,N/A,,Overcast,330,2013-03-03 14:15:00
9:35 AM,42.8,24.8,49,30.13,10.0,NW,10.4,17.3,N/A,,Overcast,320,2013-03-03 14:35:00
9:53 AM,42.1,28.0,58,30.12,-9999.0,NW,10.4,-,N/A,,Unknown,310,2013-03-03 14:53:00
9:55 AM,42.8,24.8,49,30.13,10.0,NW,10.4,-,N/A,,Overcast,320,2013-03-03 14:55:00
10:15 AM,44.6,23.0,43,30.13,10.0,West,10.4,-,N/A,,Overcast,280,2013-03-03 15:15:00
10:35 AM,42.8,21.2,42,30.12,10.0,WNW,11.5,17.3,N/A,,Overcast,290,2013-03-03 15:35:00
10:53 AM,44.1,26.1,49,30.12,-9999.0,WNW,10.4,-,N/A,,Unknown,300,2013-03-03 15:53:00
10:55 AM,44.6,21.2,39,30.13,10.0,WNW,12.7,-,N/A,,Overcast,300,2013-03-03 15:55:00
11:15 AM,42.8,21.2,42,30.13,10.0,WNW,10.4,-,N/A,,Overcast,300,2013-03-03 16:15:00
11:35 AM,44.6,21.2,39,30.13,10.0,West,11.5,-,N/A,,Overcast,280,2013-03-03 16:35:00
11:53 AM,43.0,24.1,47,30.12,-9999.0,West,11.5,-,N/A,,Unknown,280,2013-03-03 16:53:00
11:55 AM,42.8,19.4,39,30.12,10.0,West,9.2,-,N/A,,Overcast,280,2013-03-03 16:55:00
12:35 PM,44.6,17.6,34,30.11,10.0,WNW,10.4,17.3,N/A,,Overcast,290,2013-03-03 17:35:00
12:53 PM,44.1,24.1,45,30.09,-9999.0,WNW,10.4,-,N/A,,Unknown,300,2013-03-03 17:53:00
12:55 PM,44.6,17.6,34,30.10,10.0,WNW,11.5,17.3,N/A,,Overcast,300,2013-03-03 17:55:00
1:15 PM,44.6,17.6,34,30.09,10.0,NNW,9.2,16.1,N/A,,Overcast,330,2013-03-03 18:15:00
1:35 PM,44.6,17.6,34,30.09,10.0,WNW,11.5,18.4,N/A,,Overcast,300,2013-03-03 18:35:00
1:53 PM,46.0,24.1,42,30.07,-9999.0,WNW,10.4,-,N/A,,Unknown,290,2013-03-03 18:53:00
1:55 PM,46.4,15.8,29,30.08,10.0,NW,11.5,-,N/A,,Overcast,320,2013-03-03 18:55:00
2:15 PM,46.4,14.0,27,30.08,10.0,WNW,13.8,17.3,N/A,,Mostly Cloudy,290,2013-03-03 19:15:00
2:35 PM,46.4,15.8,29,30.07,10.0,NNW,10.4,17.3,N/A,,Scattered Clouds,340,2013-03-03 19:35:00
2:53 PM,48.9,24.1,38,30.06,-9999.0,NNW,12.7,20.7,N/A,,Unknown,330,2013-03-03 19:53:00
2:55 PM,50.0,12.2,22,30.07,10.0,NNW,11.5,18.4,N/A,,Scattered Clouds,330,2013-03-03 19:55:00
3:15 PM,50.0,12.2,22,30.07,10.0,NW,6.9,-,N/A,,Scattered Clouds,320,2013-03-03 20:15:00
3:35 PM,48.2,12.2,24,30.07,10.0,NNW,6.9,17.3,N/A,,Scattered Clouds,330,2013-03-03 20:35:00
3:53 PM,48.9,23.0,36,30.05,-9999.0,Variable,3.5,-,N/A,,Unknown,0,2013-03-03 20:53:00
3:55 PM,48.2,12.2,24,30.06,10.0,NNW,4.6,-,N/A,,Clear,340,2013-03-03 20:55:00
4:15 PM,50.0,10.4,20,30.05,10.0,NW,9.2,-,N/A,,Clear,320,2013-03-03 21:15:00
4:53 PM,50.0,21.9,33,30.05,-9999.0,NW,13.8,17.3,N/A,,Unknown,310,2013-03-03 21:53:00
4:55 PM,50.0,10.4,20,30.05,10.0,NW,12.7,16.1,N/A,,Clear,310,2013-03-03 21:55:00
5:15 PM,50.0,10.4,20,30.06,10.0,WNW,10.4,-,N/A,,Clear,300,2013-03-03 22:15:00
5:35 PM,50.0,12.2,22,30.07,10.0,NW,8.1,-,N/A,,Clear,310,2013-03-03 22:35:00
5:53 PM,48.0,23.0,37,30.06,-9999.0,NW,11.5,-,N/A,,Unknown,320,2013-03-03 22:53:00
5:55 PM,48.2,12.2,24,30.08,10.0,NW,6.9,-,N/A,,Clear,310,2013-03-03 22:55:00
6:15 PM,46.4,15.8,29,30.09,10.0,NW,8.1,-,N/A,,Clear,320,2013-03-03 23:15:00
6:35 PM,44.6,17.6,34,30.10,10.0,NW,4.6,-,N/A,,Clear,310,2013-03-03 23:35:00
6:53 PM,44.1,25.0,47,30.10,-9999.0,WNW,3.5,-,N/A,,Unknown,290,2013-03-03 23:53:00
6:55 PM,44.6,19.4,37,30.11,10.0,WNW,3.5,-,N/A,,Clear,300,2013-03-03 23:55:00
7:15 PM,42.8,21.2,42,30.11,10.0,WNW,3.5,-,N/A,,Clear,290,2013-03-04 00:15:00
7:35 PM,41.0,21.2,45,30.13,10.0,NW,4.6,-,N/A,,Clear,310,2013-03-04 00:35:00
7:53 PM,37.9,27.0,65,30.12,-9999.0,Calm,Calm,-,N/A,,Unknown,0,2013-03-04 00:53:00
7:55 PM,39.2,23.0,52,30.13,10.0,Calm,Calm,-,N/A,,Clear,0,2013-03-04 00:55:00
8:15 PM,35.6,23.0,60,30.14,10.0,Calm,Calm,-,N/A,,Clear,0,2013-03-04 01:15:00
8:35 PM,35.6,24.8,65,30.14,10.0,Calm,Calm,-,N/A,,Clear,0,2013-03-04 01:35:00
8:53 PM,35.1,26.1,70,30.14,-9999.0,Calm,Calm,-,N/A,,Unknown,0,2013-03-04 01:53:00
8:55 PM,35.6,24.8,65,30.15,10.0,Calm,Calm,-,N/A,,Clear,0,2013-03-04 01:55:00
9:15 PM,35.6,26.6,70,30.15,10.0,Calm,Calm,-,N/A,,Clear,0,2013-03-04 02:15:00
9:35 PM,33.8,26.6,75,30.16,10.0,Calm,Calm,-,N/A,,Clear,0,2013-03-04 02:35:00
9:53 PM,35.1,27.0,72,30.15,-9999.0,Calm,Calm,-,N/A,,Unknown,0,2013-03-04 02:53:00
10:15 PM,33.8,26.6,75,30.17,10.0,Calm,Calm,-,N/A,,Clear,0,2013-03-04 03:15:00
10:35 PM,33.8,28.4,81,30.18,10.0,Calm,Calm,-,N/A,,Clear,0,2013-03-04 03:35:00
10:53 PM,34.0,27.0,75,30.17,-9999.0,WNW,4.6,-,N/A,,Unknown,300,2013-03-04 03:53:00
10:55 PM,33.8,26.6,75,30.18,10.0,WNW,5.8,-,N/A,,Clear,300,2013-03-04 03:55:00
11:15 PM,35.6,24.8,65,30.18,10.0,WNW,4.6,-,N/A,,Clear,300,2013-03-04 04:15:00
11:35 PM,35.6,23.0,60,30.18,10.0,WNW,4.6,-,N/A,,Clear,290,2013-03-04 04:35:00
11:53 PM,33.1,24.1,70,30.17,-9999.0,Calm,Calm,-,N/A,,Unknown,0,2013-03-04 04:53:00
11:55 PM,33.8,23.0,65,30.18,10.0,Calm,Calm,-,N/A,,Clear,0,2013-03-04 04:55:00